Location: Splawn
(30.9202°N, 96.9858°W)
Time: 00:09:32
(UTC+00:00)

A-11 Canister half - Visible Passes

Search period start: 24 February 2020 00:00
Search period end: 05 March 2020 00:00
Orbit: 1517 x 1683 km, 47.2° (Epoch: 23 February)

Date Brightness Start Highest point End Pass type
(mag) Time Alt. Az. Time Alt. Az. Time Alt. Az.
24 Feb 10.0 01:28:32 10° NW 01:36:55 31° N 01:42:49 17° NE visible
24 Feb 9.7 03:34:20 10° NW 03:41:02 44° NNW 03:41:02 44° NNW visible
25 Feb 10.1 01:05:27 10° NW 01:13:51 30° N 01:21:17 12° ENE visible
25 Feb 9.4 03:11:24 10° NW 03:19:29 51° N 03:19:29 51° N visible
25 Feb 11.1 05:16:39 10° WNW 05:17:42 14° WNW 05:17:42 14° WNW visible
26 Feb 10.1 00:42:22 10° NW 00:50:46 30° N 00:58:56 10° ENE visible
26 Feb 9.2 02:48:27 10° NW 02:57:51 51° NNE 02:57:59 51° NNE visible
26 Feb 10.8 04:53:40 10° WNW 04:56:12 20° WNW 04:56:12 20° WNW visible
27 Feb 9.2 02:25:29 10° NW 02:34:51 49° NNE 02:36:31 45° NE visible
27 Feb 10.4 04:30:41 10° WNW 04:34:44 28° WNW 04:34:44 28° WNW visible
28 Feb 9.4 02:02:31 10° NW 02:11:52 47° NNE 02:15:05 36° ENE visible
28 Feb 9.9 04:07:41 10° NW 04:13:18 39° WNW 04:13:18 39° WNW visible
29 Feb 9.5 01:39:34 10° NW 01:48:52 45° NNE 01:53:43 27° E visible
29 Feb 9.5 03:44:43 10° NW 03:51:56 53° WNW 03:51:56 53° WNW visible
01 Mar 9.5 01:16:36 10° NW 01:25:51 43° NNE 01:32:23 19° E visible
01 Mar 9.0 03:21:44 10° NW 03:30:37 70° WSW 03:30:37 70° WSW visible
02 Mar 9.6 00:53:37 10° NW 01:02:50 42° NNE 01:11:08 12° E visible
02 Mar 8.9 02:58:47 10° NW 03:08:28 78° SW 03:09:22 72° S visible
02 Mar 11.1 05:06:26 10° W 05:07:36 13° W 05:07:36 13° W visible
03 Mar 8.9 02:35:49 10° NW 02:45:34 82° SW 02:48:12 54° SE visible
03 Mar 10.8 04:43:05 10° W 04:46:26 17° W 04:46:26 17° W visible
04 Mar 8.9 02:12:50 10° NW 02:22:39 87° SW 02:27:06 37° SE visible
04 Mar 10.6 04:19:48 10° WNW 04:25:21 22° WSW 04:25:21 22° WSW visible
